Theta_e
342 339 337 335 333 331 327 326 321 313 309 308 310 311 309 309 313 317 319 319 317 315 318 318 316 315 314 313 313 318 317 317 317 317 316 316 314 316 313 313 312 311 311
339 335 333 332 329 327 325 318 312 308 310 313 315 317 315 314 317 318 319 317 316 316 318 317 314 312 312 311 310 311 314 313 316 316 316 315 313 314 312 312 312 312 312
335 333 330 328 326 324 318 312 308 311 315 317 317 318 318 318 318 319 319 317 315 315 315 317 316 314 312 310 308 308 310 312 315 315 314 314 313 313 312 312 313 312 313
332 330 328 326 323 317 311 310 312 314 314 317 318 319 319 319 319 320 319 319 319 319 317 317 315 312 311 308 305 306 310 312 313 313 312 312 312 311 312 312 312 313 312
329 328 325 322 316 311 311 312 315 316 317 318 319 319 318 317 317 317 319 319 318 316 315 312 311 312 308 304 302 309 312 314 314 312 312 312 312 311 311 312 313 314 313
327 325 320 316 314 314 313 313 315 316 319 319 318 315 314 313 314 316 316 317 314 313 313 311 310 311 307 301 304 312 314 314 314 312 313 312 312 311 311 313 313 314 313
324 320 318 317 316 315 314 315 317 318 318 318 317 314 314 313 313 311 313 314 316 314 313 312 310 307 301 299 303 309 313 314 314 313 313 313 312 312 311 312 314 313 313
320 319 319 318 317 316 317 317 317 316 317 317 316 314 314 313 312 311 314 317 317 315 313 310 308 305 298 297 302 308 311 313 311 313 313 313 313 312 312 312 313 312 312
320 319 318 318 317 317 316 317 317 316 316 318 318 315 313 312 311 311 315 316 315 314 311 308 307 301 296 296 300 306 309 310 312 312 313 313 313 312 312 312 312 312 311
318 318 317 317 317 316 316 316 316 316 316 317 317 314 312 311 311 311 312 312 312 310 308 306 304 298 296 297 297 301 306 309 311 312 311 311 311 311 311 312 312 311 311
317 317 317 317 317 316 317 315 316 317 315 314 314 314 312 311 311 312 312 312 310 308 307 305 300 297 299 300 300 301 303 305 307 308 308 307 308 309 311 310 311 311 312
317 316 316 316 316 316 315 315 316 315 314 314 314 314 312 311 311 311 312 311 309 308 305 302 299 301 301 302 301 302 302 303 304 304 304 304 304 304 307 310 308 310 311
315 315 315 316 316 315 314 314 314 315 314 316 316 315 314 312 311 311 312 311 309 308 303 302 301 302 302 302 302 302 301 302 302 303 303 303 304 303 304 307 307 307 308
315 315 315 315 314 314 314 315 315 316 315 316 315 314 313 312 311 311 310 309 307 304 302 302 301 302 302 302 301 301 300 301 302 302 302 302 303 302 303 303 305 304 306
313 313 313 314 315 315 315 315 315 315 315 314 313 313 312 311 310 309 308 307 303 301 302 301 300 301 301 301 301 301 299 300 301 301 301 301 302 302 302 302 301 301 304
313 313 313 314 313 313 314 313 313 313 313 312 312 312 312 310 309 307 307 303 300 300 300 299 299 300 300 300 300 300 299 299 300 300 300 300 301 301 301 301 301 300 301
311 313 313 312 310 310 310 308 306 310 311 311 310 309 309 308 307 306 302 301 299 299 298 298 298 298 298 298 299 299 298 298 298 299 299 299 300 300 300 300 300 299 299
312 313 312 312 311 311 310 309 306 305 305 306 306 306 307 307 305 302 300 300 298 297 297 296 296 296 296 296 297 297 297 297 297 298 298 298 298 299 299 299 299 299 298
311 312 312 312 312 312 312 310 308 307 305 306 305 304 304 304 302 300 299 298 297 296 296 295 295 295 294 295 295 295 296 296 296 297 297 297 297 298 298 298 298 299 298
312 312 312 312 312 312 311 310 308 307 305 305 304 304 303 302 300 298 297 296 296 295 295 294 294 294 293 293 294 294 294 294 294 296 295 295 295 296 297 297 297 297 297
312 312 312 311 312 311 311 310 308 306 306 306 305 304 302 301 300 298 296 295 294 294 294 294 293 293 293 292 292 291 290 290 291 294 294 294 295 295 295 295 296 296 296
311 311 311 311 311 311 311 310 308 307 306 305 305 304 301 301 299 297 295 294 294 293 293 293 293 292 291 290 290 289 289 289 290 292 293 293 294 293 294 294 294 294 294
308 310 311 311 310 310 310 309 308 306 305 305 301 302 301 300 299 296 295 294 293 293 292 292 291 290 289 289 289 289 288 288 289 291 292 292 293 292 292 292 293 293 293
309 309 310 310 309 309 309 308 307 306 305 304 302 302 301 300 299 296 294 293 293 292 292 292 290 289 288 289 288 288 288 288 288 290 291 291 291 291 291 291 291 292 292
309 309 309 309 308 308 309 308 307 305 305 304 303 302 301 300 298 295 294 293 292 292 291 290 290 289 288 288 288 287 287 287 288 290 290 290 290 290 290 290 290 291 291
309 309 309 308 307 308 307 306 306 305 304 303 302 302 301 299 298 295 293 292 292 292 291 290 289 288 288 287 287 287 287 287 288 289 290 289 288 289 289 289 289 290 290
Wind_Speed
30 33 30 26 23 20 18 15 13 10 8 8 9 9 9 11 14 15 13 12 12 12 12 12 13 13 14 15 14 11 13 19 23 29 27 28 30 29 36 34 36 32 29
32 30 28 24 21 19 16 14 11 9 10 11 11 10 9 12 14 13 11 10 10 9 10 10 13 16 17 19 18 15 12 15 16 26 26 27 27 30 34 35 37 35 30
32 29 27 24 20 18 15 13 11 12 13 12 12 12 12 14 14 12 10 10 10 9 11 13 15 16 20 22 22 19 16 14 15 19 23 25 25 31 38 38 38 41 34
31 29 25 20 18 16 15 14 13 13 13 14 14 15 15 14 15 12 10 10 9 10 11 11 13 18 21 23 22 19 16 16 15 18 21 28 32 34 37 39 42 41 37
30 27 23 21 18 17 16 15 15 14 14 13 14 13 12 11 13 13 12 6 6 7 8 11 13 18 22 22 21 14 16 18 19 22 21 28 32 36 38 40 38 42 38
30 27 23 21 20 18 16 16 16 16 16 13 11 9 11 12 11 10 9 9 6 7 9 11 13 18 20 19 14 9 12 15 15 19 21 26 30 32 33 35 37 37 34
30 27 23 21 20 18 18 17 16 17 17 14 9 9 12 12 10 8 6 8 8 9 11 13 20 21 22 19 13 8 10 13 15 15 20 21 25 27 30 33 35 33 35
30 26 22 20 20 19 18 17 14 14 16 14 11 11 12 11 9 8 9 10 9 9 15 19 22 22 23 20 16 12 6 11 15 11 16 18 20 23 27 32 29 30 32
29 26 23 22 22 20 18 18 14 13 14 14 13 8 10 10 8 6 11 9 5 5 12 16 19 22 21 18 16 13 13 11 11 13 13 13 17 20 25 29 31 30 34
30 26 24 22 22 18 19 17 14 14 15 13 11 8 10 8 6 5 3 3 5 8 10 15 19 19 19 19 18 18 16 14 16 16 15 17 13 16 20 26 30 28 32
29 27 25 23 21 20 19 15 18 16 14 13 10 8 7 6 5 3 3 4 5 3 6 12 16 18 16 21 22 19 18 15 17 16 16 19 20 21 20 25 25 28 27
30 28 27 23 20 19 15 20 14 13 14 11 11 7 6 4 2 2 3 4 6 7 10 15 17 18 18 20 22 20 18 16 18 19 20 22 23 23 19 22 27 21 21
30 27 26 23 19 17 17 16 13 13 12 12 10 8 2 3 3 1 2 4 6 8 10 13 17 17 18 18 17 19 18 19 20 22 21 23 23 20 21 20 25 22 20
30 30 28 23 20 17 15 14 16 17 10 8 12 12 10 8 9 4 4 6 7 8 10 12 13 10 12 13 15 18 19 17 21 21 21 21 22 21 24 23 25 29 26
30 29 27 27 24 24 22 20 16 18 18 17 17 15 9 5 4 3 5 6 7 9 10 8 9 12 13 13 15 17 20 18 22 21 22 22 24 24 25 24 26 21 24
32 29 30 25 23 23 21 16 17 18 16 14 13 11 13 5 2 4 6 7 9 10 10 9 10 11 13 14 15 17 20 19 20 20 22 21 24 24 24 24 23 27 26
30 30 26 21 17 21 18 13 14 18 16 14 11 9 5 5 4 5 8 10 11 9 8 9 9 10 12 12 13 16 18 17 16 19 21 21 22 23 24 25 25 29 24
30 28 26 20 16 12 12 7 12 12 12 10 8 9 9 6 6 8 11 11 10 9 9 8 9 9 10 11 12 15 16 18 16 18 19 22 19 23 24 25 24 26 29
30 27 23 21 19 18 15 13 12 12 7 12 13 12 10 8 8 9 7 6 7 8 8 9 8 9 9 10 11 12 12 12 13 14 19 21 20 22 23 23 24 24 26
25 24 24 22 21 17 12 12 11 14 9 12 9 7 10 10 9 6 6 7 6 6 9 9 10 9 10 10 9 9 8 9 11 12 18 20 22 18 22 22 23 23 24
28 25 20 20 18 16 14 12 11 12 14 12 12 11 12 10 5 5 4 5 6 5 7 8 6 8 8 7 8 8 10 11 12 12 17 20 21 16 22 19 22 22 24
26 24 19 19 17 16 14 13 11 12 13 12 9 10 13 9 6 4 4 5 5 5 6 7 4 4 6 8 10 12 13 14 13 13 16 19 20 16 21 21 21 23 23
23 21 18 16 16 17 14 11 11 10 10 10 5 13 9 7 6 5 5 4 5 5 4 3 3 5 6 9 11 12 13 14 14 13 14 18 19 18 18 20 20 22 23
15 17 16 15 13 15 14 12 11 11 13 11 8 9 7 7 8 7 6 6 5 4 5 4 5 7 8 9 10 11 12 13 13 14 14 17 15 19 16 20 18 20 21
15 15 15 14 13 13 15 13 10 14 12 11 12 9 8 7 7 6 6 6 4 4 3 2 2 6 8 9 10 11 11 11 12 13 14 16 11 14 15 18 16 19 19
15 14 16 16 14 11 12 14 13 13 15 17 11 10 10 7 6 6 6 6 7 6 2 2 2 5 8 9 9 10 10 10 10 12 14 13 16 14 18 16 17 18 19
Wind_Direction
158 164 159 161 160 155 156 149 138 127 111 104 96 93 98 105 108 89 77 75 71 68 65 46 40 24 22 2 358 345 352 339 335 341 341 344 344 349 347 357 1 9 5
164 155 154 152 152 151 145 138 136 129 118 111 108 105 102 106 104 113 105 90 82 70 61 44 29 20 11 1 357 357 344 347 351 341 345 344 344 344 355 358 5 8 9
151 154 154 149 150 147 143 139 132 126 120 115 109 105 100 98 100 99 93 79 64 55 47 36 10 5 0 359 355 350 350 359 1 346 341 335 354 353 357 1 7 14 15
152 154 150 149 150 144 140 134 132 129 122 117 111 110 107 118 121 100 80 81 72 42 41 40 355 356 358 352 348 351 357 5 358 348 355 1 3 4 2 360 3 7 6
154 152 150 149 144 139 135 134 130 124 118 118 125 142 149 138 136 122 105 89 78 62 33 28 8 357 354 346 343 358 3 359 352 350 360 1 1 1 4 1 351 353 5
152 146 147 142 142 142 136 135 134 126 121 119 129 145 124 131 132 126 117 94 50 39 27 31 1 351 348 352 355 16 358 343 343 358 3 1 360 1 0 7 7 359 357
145 142 144 146 140 133 132 132 129 128 133 128 147 140 131 127 126 118 95 81 28 17 6 6 359 355 354 354 355 350 346 349 340 2 1 1 357 359 357 2 7 3 1
138 139 141 139 134 134 135 137 137 138 130 128 124 125 132 128 118 107 84 64 29 12 355 351 350 355 357 355 354 9 355 340 342 9 358 356 1 356 356 355 2 6 9
136 137 138 140 137 144 143 129 136 134 128 123 120 122 130 128 120 101 90 68 357 12 346 340 349 356 357 2 2 12 18 28 40 21 4 3 8 359 355 353 1 3 2
137 142 142 140 145 146 137 138 137 117 123 125 129 134 131 130 124 120 98 101 62 36 352 338 348 357 4 7 14 21 20 24 19 14 360 343 348 360 1 359 2 4 7
140 142 144 146 147 140 144 142 119 142 140 133 145 145 112 121 117 99 53 29 27 41 325 347 0 5 13 26 27 27 16 12 17 10 4 5 7 10 1 358 359 5 6
141 145 149 148 142 146 146 135 159 167 140 134 118 83 85 85 84 53 26 12 16 3 358 7 18 27 29 22 22 19 15 36 28 18 15 13 10 6 6 352 358 1 5
149 150 141 138 145 143 141 143 132 113 117 112 120 134 79 84 336 318 22 13 7 4 5 23 26 29 26 26 19 6 21 34 28 19 19 16 14 7 14 4 355 13 20
148 144 147 151 134 118 115 134 151 151 137 149 149 153 188 226 298 333 20 21 7 20 39 32 20 31 26 27 22 14 15 34 29 19 19 17 18 16 19 16 8 6 14
149 146 143 134 149 154 164 164 171 165 166 169 175 173 191 226 313 35 32 23 32 44 42 35 23 35 30 31 29 18 11 31 30 21 17 18 17 14 18 15 7 14 8
148 147 140 155 162 169 176 161 171 181 183 184 192 195 210 218 57 57 33 40 55 61 46 34 36 40 34 26 26 21 14 26 29 22 19 19 17 15 14 16 9 16 16
147 142 149 155 158 171 179 181 166 178 190 201 212 220 171 155 100 67 62 55 59 59 52 46 36 40 38 26 31 25 15 14 27 25 23 17 20 15 14 15 14 11 16
150 148 146 150 140 126 120 118 135 147 162 160 156 153 142 117 102 95 75 61 54 48 41 42 40 33 45 29 42 26 13 11 25 26 24 17 21 16 12 15 14 14 9
148 140 149 146 139 145 164 141 137 140 135 129 128 130 116 103 92 85 81 80 70 61 50 36 33 29 36 37 42 30 15 10 15 30 26 23 14 19 14 14 12 16 7
139 154 149 152 146 147 172 146 148 145 139 117 109 128 90 84 73 63 74 80 71 74 68 40 24 33 24 34 33 20 1 1 14 42 36 26 8 24 16 12 14 13 11
154 148 149 153 142 151 162 147 157 137 138 140 162 161 141 121 111 104 72 77 93 74 85 62 37 41 24 18 14 17 13 12 18 53 47 26 3 22 19 11 16 12 13
156 149 146 140 153 154 156 153 158 142 157 162 190 182 144 119 122 107 95 93 70 71 79 89 39 47 18 19 21 25 23 21 22 47 48 39 3 17 23 10 17 13 15
156 145 148 153 160 159 152 147 161 166 158 148 172 146 128 143 128 126 122 101 90 80 67 76 57 33 33 28 25 28 26 28 27 37 38 38 11 6 28 12 20 12 13
144 143 152 161 168 151 152 162 164 156 165 155 154 151 155 132 167 151 129 116 108 97 86 33 15 34 36 29 26 26 28 32 35 47 44 34 22 3 32 15 26 17 15
155 160 158 162 161 151 168 155 159 163 160 165 167 165 154 158 150 147 131 132 120 106 112 142 57 10 34 28 27 28 30 34 40 41 36 29 16 17 29 24 23 24 16
155 166 168 167 152 162 167 167 164 168 172 178 172 166 166 167 173 154 150 144 144 142 148 37 16 20 28 27 29 29 30 37 45 46 33 15 15 39 23 29 20 31 21